Estación de Huelquen

Ultimos registro cada 15 minutos 43
Estación Fecha / Hora Temperatura Humedad Lluvia Velocidad Dirección Radiación Presion
43 Huelquen 09-05-2026 10:30 13,2 70 0 0 10 422 1017,6
42 Huelquen 09-05-2026 10:15 12,4 73 0 0 160 392 1017,9
41 Huelquen 09-05-2026 10:00 11,7 77 0 0 49 362 1017,9
40 Huelquen 09-05-2026 09:45 11,2 83 0 0 54 327 1017,9
39 Huelquen 09-05-2026 09:30 10,1 88 0 0 180 295 1018,1
38 Huelquen 09-05-2026 09:15 9,1 90 0 0 60 251 1018,2
37 Huelquen 09-05-2026 09:00 8,6 93 0 0 5 214 1018,1
36 Huelquen 09-05-2026 08:45 7,4 94 0 0 49 179 1018
35 Huelquen 09-05-2026 08:30 5,6 93 0 0 12 139 1017,7
34 Huelquen 09-05-2026 08:15 3,6 91 0 0 12 97 1017,3
33 Huelquen 09-05-2026 08:00 3,1 88 0 0 12 18 1017
32 Huelquen 09-05-2026 07:45 3,2 88 0 0 12 11 1017
31 Huelquen 09-05-2026 07:30 3,4 87 0 0 12 7 1017
30 Huelquen 09-05-2026 07:15 3,6 88 0 0 12 0 1016,9
29 Huelquen 09-05-2026 07:00 3,8 87 0 0 12 0 1016,9
28 Huelquen 09-05-2026 06:45 4,3 87 0,2 0 12 0 1017,1
27 Huelquen 09-05-2026 06:30 4,8 88 0 0 12 0 1017
26 Huelquen 09-05-2026 06:15 5 88 0 0 12 0 1016,9
25 Huelquen 09-05-2026 06:00 4,9 88 0 0 51 0 1016,9
24 Huelquen 09-05-2026 05:45 4,9 88 0 0 52 0 1016,8
23 Huelquen 09-05-2026 05:30 4,8 88 0 0 19 0 1016,7
22 Huelquen 09-05-2026 05:15 4,4 87 0 0 24 0 1016,7
21 Huelquen 09-05-2026 05:00 4,6 87 0 0 73 0 1016,6
20 Huelquen 09-05-2026 04:45 4,6 86 0 0 73 0 1016,5
19 Huelquen 09-05-2026 04:30 4,9 86 0 0 35 0 1016,6
18 Huelquen 09-05-2026 04:15 5,1 86 0 0 35 0 1016,5
17 Huelquen 09-05-2026 04:00 5,4 86 0 0 34 0 1016,6
16 Huelquen 09-05-2026 03:45 5,4 86 0 0 35 0 1016,7
15 Huelquen 09-05-2026 03:30 5,5 86 0 0 35 0 1016,7
14 Huelquen 09-05-2026 03:15 5,3 86 0 0 115 0 1016,8
13 Huelquen 09-05-2026 03:00 5,3 86 0 0 139 0 1016,8
12 Huelquen 09-05-2026 02:45 5,2 85 0 0 134 0 1017
11 Huelquen 09-05-2026 02:30 5,6 85 0 0 131 0 1017,3
10 Huelquen 09-05-2026 02:15 5,7 86 0 0 142 0 1017,5
9 Huelquen 09-05-2026 02:00 5,1 84 0 0 62 0 1017,3
8 Huelquen 09-05-2026 01:45 5,3 84 0 0 62 0 1017,1
7 Huelquen 09-05-2026 01:30 5,4 83 0 0 45 0 1017,1
6 Huelquen 09-05-2026 01:15 5,7 83 0 0 39 0 1017
5 Huelquen 09-05-2026 01:00 6,1 83 0 0 34 0 1017,1
4 Huelquen 09-05-2026 00:45 6,2 82 0 0 34 0 1017,2
3 Huelquen 09-05-2026 00:30 6,7 81 0 0 33 0 1017,2
2 Huelquen 09-05-2026 00:15 7,3 81 0 0 33 0 1017,3
1 Huelquen 09-05-2026 00:00 7,6 81 0 0 33 0 1017,5